Location: Ailingen
(47.6833°N, 9.5000°E)
Time: 04:52:03
(UTC+00:00)

Cosmos 489 Rocket - Pass Details

Date: 18 November 2025
Orbit: 952 x 982 km, 74.0° (Epoch: 04 December)

Event Time Altitude Azimuth Distance (km) Brightness Sun altitude
Rises 17:10:37 0° 339° (NNW) 3,668 7.6 -14.8°
Reaches altitude 10° 17:13:13 10° 343° (NNW) 2,713 6.9 -15.2°
Maximum altitude 17:19:26 61° 63° (ENE) 1,086 4.4 -16.2°
Drops below altitude 10° 17:25:33 10° 144° (SE) 2,678 6.5 -17.2°
Sets 17:28:06 0° 147° (SSE) 3,618 7.3 -17.7°
